Залещики

Украина / Тернопольская область     48°40′45″N   25°46′16″E
темп.,
°C
ветер,
м/с
пор.,
м/с
влажн.,
%
обл.,
%
осадки,
мм/ч
давл.,
гПа
погр.,
м
18 мая, вт
вт1800:00+12всв118654 0.0 100310
03:00+11в1188100 0.1 100211
06:00+11ю1195100 1.5 100117
09:00+13зсз3590100 3.7 1002443
12:00+13зсз4588100 0.7 1002638
15:00+11зсз81292100 2.4 1003640
18:00+11зсз91490100 0.4 1004692
21:00+10зсз91791100 1.5 1004744
19 мая, ср
ср1900:00+11зсз111888100 0.1 1005850
03:00+10зсз101790100 1.1 1006760
06:00+10зсз10168991 0.0 1008854
09:00+12зсз91582100 0.0 10091062
12:00+15сз9127054 0.1 10101261
15:00+16сз8106357 0.1 10101594
18:00+15сз57674 0.1 1011972
21:00+11сз228799 0.1 101118
20 мая, чт
чт2000:00+10ссз2289100 0.0 101112
03:00+9св1191100 0.0 101012
06:00+10св2489100 0.0 1009110
09:00+10всв2595100 1.6 1010244
12:00+11в3692100 4.2 1010422
15:00+11вюв1291100 4.9 1010297
18:00+11сз1292100 0.3 101081
21:00+10ссз3594100 0.6 1011195
21 мая, пт
пт2100:00+10зсз4697100 0.0 1012270
03:00+9сз2497100 0.0 1012135
06:00+9ссз3696100 0.0 1012291
09:00+9с91690100 1.6 1014974
12:00+9с71388100 0.7 10161110
15:00+10с61188100 1.2 10171055
18:00+10сз4990100 0.3 1018710
21:00+9ссз368997 0.4 1019165
22 мая, сб
сб2200:00+9зсз368989 0.0 1019119
03:00+7зсз239087 0.0 101951
06:00+8ссз2589100 0.0 1019129
09:00+12сз22735 0.0 1019423
12:00+16ссв226016 0.0 10181197
15:00+19вюв115516 0.0 10171435
18:00+19вюв33587 0.0 10161275
21:00+13юв35865 0.0 101785